Weather History for PASY - November, 2012

Change the Weather History Date:

Thursday, November 1, 2012

  Actual Average Record
Temperature  
Mean Temperature 37 °F -  
Max Temperature 39 °F - - ()
Min Temperature 35 °F - - ()
Degree Days  
Heating Degree Days 28    
Moisture  
Dew Point 30 °F    
Average Humidity 73    
Maximum Humidity 89    
Minimum Humidity 50    
Precipitation  
Precipitation 0.03 in - - ()
Sea Level Pressure  
Sea Level Pressure 30.56 in    
Wind  
Wind Speed 9 mph (NNE)    
Max Wind Speed 14 mph    
Max Gust Speed -    
Visibility 10 miles    
Events Rain , Snow    
T = Trace of Precipitation, MM = Missing Value Source: NWS Daily Summary

Daily Weather History Graph

Daily Weather History Graph

Search for Another Location

Airport or City:

Trip Planner

Search our weather history database for the weather conditions in past years. The results will help you decide how hot, cold, wet, or windy it might be!

Date:

Astronomy

Oct. 31, 2012 Rise Set
Actual Time 10:20 AM HDT 7:53 PM HDT
Civil Twilight 9:43 AM HDT 8:29 PM HDT
Nautical Twilight 9:03 AM HDT 9:10 PM HDT
Astronomical Twilight 8:23 AM HDT 9:49 PM HDT
Moon 9:43 PM HDT (11/1) 1:25 PM HDT (11/1)
Length of Visible Light 10h 45m
Length of Day
9h 33m
Waning Gibbous, 92% of the Moon is Illuminated
Nov 1
Waning Gibbous
Nov 6
Last Quarter
Nov 13
New
Nov 20
First Quarter
Nov 28
Full

Hourly Weather History & Observations

Time (HDT) Temp. Windchill Dew Point Humidity Pressure Visibility Wind Dir Wind Speed Gust Speed Precip Events Conditions
12:56 AM 37.9 °F 30.9 °F 28.9 °F 70% 30.59 in 10.0 mi NNE 10.4 mph - N/A   Overcast
1:56 AM 37.0 °F 31.0 °F 32.0 °F 82% 30.59 in 10.0 mi East 8.1 mph - N/A Rain Light Rain
2:56 AM 37.9 °F 31.5 °F 30.9 °F 76% 30.58 in 10.0 mi NNE 9.2 mph - N/A   Overcast
3:31 AM 35.6 °F 28.0 °F 30.2 °F 81% 30.59 in 6.2 mi NNE 10.4 mph - N/A Snow Light Snow
3:45 AM 37.4 °F 30.8 °F 30.2 °F 75% 30.58 in 10.0 mi NE 9.2 mph - N/A   Overcast
4:56 AM 37.9 °F 31.5 °F 28.9 °F 70% 30.58 in 10.0 mi East 9.2 mph - N/A   Overcast
5:56 AM 36.0 °F 31.1 °F 33.1 °F 89% 30.57 in 10.0 mi North 5.8 mph - N/A   Overcast
6:06 AM 35.6 °F 30.7 °F 30.2 °F 81% 30.56 in 10.0 mi North 5.8 mph - N/A   Overcast
6:19 AM 37.4 °F 32.1 °F 30.2 °F 75% 30.56 in 10.0 mi North 6.9 mph - N/A   Overcast
6:56 AM 37.9 °F 32.1 °F 28.9 °F 70% 30.56 in 10.0 mi NE 8.1 mph - N/A   Overcast
7:56 AM 37.9 °F 32.7 °F 27.0 °F 65% 30.56 in 10.0 mi NNE 6.9 mph - N/A   Overcast
8:56 AM 37.9 °F 32.1 °F 26.1 °F 62% 30.56 in 10.0 mi NNE 8.1 mph - N/A   Overcast
9:56 AM 37.9 °F 32.1 °F 28.9 °F 70% 30.57 in 10.0 mi NE 8.1 mph - N/A   Overcast
10:56 AM 37.9 °F 29.6 °F 30.0 °F 73% 30.58 in 10.0 mi NE 13.8 mph - N/A   Overcast
11:56 AM 37.9 °F 31.5 °F 30.0 °F 73% 30.58 in 10.0 mi NE 9.2 mph - N/A   Overcast
12:56 PM 39.0 °F 32.8 °F 30.0 °F 70% 30.58 in 10.0 mi NNE 9.2 mph - N/A   Overcast
1:56 PM 39.0 °F 34.0 °F 30.0 °F 70% 30.57 in 10.0 mi ENE 6.9 mph - N/A   Overcast
2:56 PM 39.0 °F 32.3 °F 30.0 °F 70% 30.55 in 10.0 mi North 10.4 mph - N/A   Overcast
3:56 PM 39.9 °F 33.9 °F 30.9 °F 70% 30.55 in 10.0 mi NNE 9.2 mph - N/A   Overcast
4:56 PM 39.9 °F 33.9 °F 28.0 °F 63% 30.54 in 10.0 mi North 9.2 mph - N/A   Overcast
5:56 PM 39.0 °F 35.7 °F 30.0 °F 70% 30.53 in 10.0 mi North 4.6 mph - N/A   Overcast
6:31 PM 35.6 °F 27.1 °F 30.2 °F 81% 30.53 in 10.0 mi NNE 12.7 mph - N/A Rain Light Rain
6:56 PM 36.0 °F 32.1 °F 33.1 °F 89% 30.54 in 10.0 mi NE 4.6 mph - N/A   Overcast
7:56 PM 37.0 °F 32.4 °F 32.0 °F 82% 30.53 in 10.0 mi NNE 5.8 mph - N/A   Overcast
8:56 PM 36.0 °F 27.5 °F 30.9 °F 82% 30.54 in 10.0 mi NNW 12.7 mph - N/A   Overcast
9:56 PM 37.0 °F 33.3 °F 30.9 °F 79% 30.54 in 10.0 mi North 4.6 mph - N/A   Overcast
10:56 PM 37.0 °F 33.3 °F 30.9 °F 79% 30.53 in 10.0 mi NNW 4.6 mph - N/A   Overcast
11:56 PM 37.0 °F 28.5 °F 30.9 °F 79% 30.53 in 10.0 mi North 13.8 mph - N/A   Overcast